This is the latest recevied weather packets stored in our database for station/object N9BID. If no packets are shown the sender has not sent any weather packets the latest 10 day(s).
| Time | Temp. | Humidity | Pressure | Rain* | Wind** | Luminosity | Snow |
|---|---|---|---|---|---|---|---|
| 1777914032 | 18.33° C | 54% | 988 hPa | 0 mm | - | 620 W/m² | - |
| 1777913727 | 18.89° C | 51% | 988.2 hPa | 0 mm | - | 633 W/m² | - |
| 1777913424 | 18.33° C | 49% | 987.8 hPa | 0 mm | - | 612 W/m² | - |
| 1777913121 | 18.89° C | 53% | 988 hPa | 0 mm | - | 594 W/m² | - |
| 1777912817 | 18.89° C | 52% | 988.1 hPa | 0 mm | - | 649 W/m² | - |
| 1777912513 | 18.33° C | 52% | 988.1 hPa | 0 mm | - | 671 W/m² | - |
| 1777912210 | 17.78° C | 50% | 988 hPa | 0 mm | - | 703 W/m² | - |
| 1777911906 | 18.33° C | 52% | 988.1 hPa | 0 mm | - | 639 W/m² | - |
| 1777911603 | 18.33° C | 51% | 987.9 hPa | 0 mm | - | 609 W/m² | - |
| 1777911298 | 18.33° C | 53% | 988.1 hPa | 0 mm | - | 680 W/m² | - |
| 1777910996 | 18.33° C | 53% | 988.1 hPa | 0 mm | - | 695 W/m² | - |
| 1777910694 | 17.78° C | 53% | 987.8 hPa | 0 mm | - | 636 W/m² | - |
| 1777910390 | 17.78° C | 52% | 988 hPa | 0 mm | - | 485 W/m² | - |
| 1777910087 | 17.78° C | 53% | 987.7 hPa | 0 mm | - | 528 W/m² | - |
| 1777909785 | 17.78° C | 53% | 987.9 hPa | 0 mm | - | 656 W/m² | - |
| 1777909481 | 17.78° C | 53% | 988 hPa | 0 mm | - | 626 W/m² | - |
| 1777909179 | 17.78° C | 53% | 987.9 hPa | 0 mm | - | 549 W/m² | - |
| 1777908877 | 17.78° C | 52% | 988 hPa | 0 mm | - | 514 W/m² | - |
| 1777908574 | 17.78° C | 53% | 987.8 hPa | 0 mm | - | 644 W/m² | - |
| 1777908270 | 17.78° C | 51% | 987.7 hPa | 0 mm | - | 606 W/m² | - |
| 1777907967 | 17.78° C | 53% | 987.7 hPa | 0 mm | - | 414 W/m² | - |
| 1777907662 | 17.78° C | 51% | 987.9 hPa | 0 mm | - | 574 W/m² | - |
| 1777907358 | 17.78° C | 52% | 987.6 hPa | 0 mm | - | 345 W/m² | - |
| 1777907055 | 17.78° C | 53% | 987.6 hPa | 0 mm | - | 513 W/m² | - |
| 1777906752 | 17.78° C | 52% | 987.6 hPa | 0 mm | - | 491 W/m² | - |
* Rain latest hour (hover to see other rain measurements)
** Current wind speed in m/s (hover to see current wind gust speed)